Wind_Speed
53 49 46 45 40 38 37 37 34 33 31 26 28 26 27 24 22 20 18 16 19 19 18 18 14 14 14 15 15 17 17 17 18 18 18 18 20 22 24 28 30 29 30 32 33 35 36 35 35
58 55 51 49 45 43 43 44 38 37 28 36 33 31 30 22 28 24 26 20 21 21 21 23 23 20 18 19 19 20 20 20 21 22 21 21 21 21 21 21 23 27 28 30 29 31 32 34 35
63 60 57 55 52 49 52 47 45 41 37 40 35 37 31 28 29 29 30 28 28 27 27 29 31 28 26 25 24 24 25 26 26 26 26 26 26 25 27 27 27 28 31 34 35 34 35 35 37
68 66 62 60 57 55 55 52 48 44 44 45 43 42 34 34 36 34 34 33 34 33 30 30 32 33 32 32 32 31 30 30 32 30 28 29 31 33 33 33 32 32 33 34 36 37 38 39 38
69 69 65 62 61 61 58 56 52 48 52 50 48 46 40 39 37 38 38 38 38 37 37 36 37 38 38 38 38 37 38 39 40 40 40 39 37 36 38 38 38 40 41 40 41 41 41 40 41
71 70 68 64 65 65 65 62 57 56 56 52 51 49 45 44 40 41 42 43 43 42 43 43 43 42 43 43 43 44 45 46 46 45 46 47 46 46 44 45 46 46 47 48 47 46 45 44 44
73 72 70 70 69 70 69 67 65 63 61 61 56 53 53 47 46 46 46 47 48 47 49 49 48 49 49 50 50 50 50 51 51 51 51 51 52 53 53 54 53 54 55 52 52 52 50 48 47
82 78 72 73 72 72 74 74 68 67 65 66 59 59 58 52 47 53 54 54 54 53 52 54 56 56 57 56 58 56 57 56 56 56 57 57 56 55 57 60 59 59 60 60 57 58 58 53 51
81 81 80 78 77 78 79 77 72 76 75 70 64 69 65 60 60 61 62 60 59 57 57 57 59 62 63 63 63 62 62 64 63 62 62 62 63 62 61 62 67 66 68 67 65 62 62 58 57
82 76 81 83 84 85 81 79 76 73 81 73 74 75 75 70 70 70 69 69 67 65 64 64 66 67 67 68 69 70 69 71 73 74 73 69 70 68 70 69 69 66 69 69 70 69 65 61 59
83 83 80 80 85 81 84 85 85 77 79 77 78 80 79 76 71 73 76 77 74 71 71 69 73 72 77 78 79 79 78 79 79 82 82 79 77 79 81 81 79 76 71 71 71 72 71 69 65
85 85 84 90 83 73 81 84 83 84 79 79 82 84 84 82 80 80 79 80 79 80 75 77 75 79 83 81 86 93 89 90 89 90 87 86 86 82 86 88 87 88 86 83 78 76 78 73 71
92 90 91 88 87 90 91 83 84 86 84 81 75 75 79 85 89 87 88 89 85 88 85 83 82 83 92 95 92 77 91 88 88 92 91 93 91 88 91 89 89 92 89 91 86 81 78 77 74
101 99 95 93 96 88 97 94 90 88 86 85 90 90 89 89 92 90 93 87 90 93 97 89 85 84 63 67 95 106 97 83 90 92 95 95 93 92 90 89 91 94 95 97 93 91 87 83 81
105 103 102 100 100 97 96 92 93 101 99 95 92 99 99 97 98 93 92 90 87 86 88 91 83 83 89 90 80 76 91 99 93 96 90 89 93 98 98 103 102 99 99 98 100 94 91 91 92
105 108 107 108 109 109 104 99 99 99 101 96 101 98 94 99 101 104 109 109 102 96 100 95 92 89 91 97 104 105 105 106 112 105 103 109 108 105 104 104 106 107 105 104 103 103 98 97 96
98 102 102 108 112 112 107 107 111 109 101 100 100 101 105 103 100 100 102 103 106 105 102 109 106 106 104 114 114 114 112 114 118 118 120 122 120 119 112 109 107 107 106 105 104 105 106 105 104
83 94 100 102 106 106 107 106 109 110 106 104 107 106 104 105 105 105 105 107 106 107 108 106 107 109 112 111 113 111 110 111 114 117 121 118 116 116 117 109 108 109 103 99 97 94 95 101 100
74 76 79 88 95 98 99 101 100 102 105 101 104 104 104 105 106 108 109 107 111 111 111 111 110 110 112 117 119 119 115 114 111 112 117 114 111 111 112 116 113 107 107 104 101 99 96 96 101
68 69 72 75 79 84 89 93 100 100 98 97 96 95 100 104 106 111 116 118 110 104 111 110 104 101 101 103 103 100 97 99 99 98 100 102 107 108 110 111 106 104 100 99 98 98 96 96 99
65 66 68 70 72 72 75 80 83 85 86 89 92 94 96 98 101 104 107 102 104 103 100 97 94 93 94 95 96 97 98 98 92 93 92 92 99 101 104 106 105 104 103 99 97 96 94 93 97
41 48 52 58 62 63 68 70 74 77 81 83 85 87 88 89 89 88 88 91 89 87 86 83 82 77 79 81 81 80 77 74 71 71 70 71 72 75 78 81 84 88 89 91 93 95 98 97 96
32 38 38 39 40 40 41 44 44 52 53 57 62 63 66 69 63 63 63 68 62 58 61 58 58 58 61 59 60 61 63 64 65 68 69 71 67 52 73 78 80 82 77 76 79 80 83 86 88
41 39 39 42 43 40 44 46 45 49 50 50 49 48 50 49 46 52 54 50 52 54 53 53 52 56 59 60 61 62 64 67 68 70 72 74 74 61 49 54 57 82 79 76 77 76 78 79 76
48 47 42 44 48 47 53 53 52 56 56 53 52 52 52 49 50 54 52 52 55 53 56 56 58 59 63 66 67 68 69 71 74 75 77 78 78 71 52 66 58 68 71 90 96 89 70 74 70
57 57 57 57 56 54 55 55 56 62 62 60 62 57 55 56 59 56 59 59 58 61 62 63 65 65 66 70 73 74 75 79 80 80 83 85 86 84 75 53 42 59 94 98 80 69 72 72 70
66 66 70 66 64 63 64 63 64 66 68 65 65 66 64 66 63 61 64 64 66 67 67 68 71 71 73 74 77 78 81 83 84 86 88 89 92 92 85 64 44 51 65 71 72 74 74 64 65
66 69 68 68 67 68 67 70 70 73 73 72 70 71 70 70 71 69 68 71 71 70 72 73 74 77 80 83 84 84 88 88 90 92 94 97 98 98 94 77 52 60 69 72 82 70 66 58 52
74 72 72 74 71 69 68 67 73 73 77 79 79 78 75 75 75 75 75 81 77 78 80 81 81 84 87 89 91 92 95 96 99 98 100 103 105 104 98 82 66 58 71 66 47 49 63 65 51
79 79 77 78 75 76 73 67 76 77 80 80 83 85 82 80 79 79 76 82 81 83 83 86 87 90 92 94 95 99 103 103 105 107 108 108 107 104 100 91 66 61 65 64 54 66 72 74 63
Wind_Direction
226 225 225 224 220 222 224 226 223 228 229 230 230 235 234 232 241 233 241 239 243 250 261 270 274 263 257 257 261 261 261 269 271 280 285 295 301 302 295 293 296 305 315 312 310 309 308 308 311
225 226 227 228 221 223 221 225 222 227 226 235 237 236 238 247 244 238 239 244 251 256 258 262 270 271 261 265 265 266 270 274 279 283 284 288 290 293 295 299 301 302 308 308 309 310 307 306 307
226 228 228 229 232 226 227 227 221 226 219 232 234 240 241 247 246 245 245 253 261 262 264 266 271 274 273 271 271 273 276 281 284 285 284 289 292 293 293 296 298 304 310 311 312 312 312 310 311
226 228 230 232 229 229 233 232 229 231 224 228 233 236 240 243 249 249 254 261 264 266 266 268 271 274 275 278 277 275 273 276 282 284 287 289 294 296 297 296 296 297 299 301 305 308 309 310 312
230 230 230 232 234 233 236 238 237 227 231 233 231 242 237 240 246 252 256 261 262 264 265 269 272 275 276 279 281 281 283 287 289 291 292 292 291 293 297 298 297 296 297 299 300 301 304 308 309
231 233 233 232 234 237 239 240 238 235 239 237 237 242 239 241 243 246 255 261 264 264 265 270 273 275 277 278 280 283 283 285 287 287 289 292 294 295 295 295 298 299 300 300 299 299 299 302 304
230 234 234 237 237 240 243 242 243 243 246 243 243 246 246 239 247 252 258 263 261 264 267 270 270 272 276 276 278 279 281 283 286 290 290 292 293 294 295 296 297 298 299 297 297 298 298 296 298
232 233 235 239 240 242 244 240 247 248 248 248 248 248 251 251 248 254 258 260 261 261 263 267 272 275 278 278 278 278 281 281 284 286 288 290 291 292 293 295 295 296 296 296 297 298 295 292 293
234 237 237 239 241 242 244 247 245 250 251 252 251 255 256 255 252 255 260 261 264 266 265 266 270 275 277 279 279 279 279 280 281 281 281 284 285 286 289 293 292 294 295 294 295 296 294 292 292
233 235 239 240 243 244 246 250 252 250 253 252 253 256 258 258 261 259 259 262 263 264 266 268 270 273 274 275 277 278 277 280 281 282 283 283 282 283 286 289 289 289 291 293 292 292 293 291 290
234 235 231 240 246 247 250 249 251 249 253 255 257 259 263 262 258 264 265 263 262 263 263 265 269 273 276 276 276 276 277 278 279 282 283 281 283 285 286 288 287 289 285 288 288 289 288 288 290
230 229 234 238 230 241 249 249 250 253 253 259 260 259 263 264 265 265 266 264 266 265 265 268 269 270 271 271 277 274 273 275 276 279 278 280 280 281 282 284 284 287 288 288 287 283 284 284 285
234 232 233 230 241 244 240 242 248 252 253 251 249 259 261 263 265 267 267 269 272 269 269 268 269 273 276 274 275 267 270 274 275 274 275 279 278 276 279 282 283 284 286 288 287 283 281 281 281
243 243 240 240 236 236 242 246 244 244 245 251 257 257 260 263 263 262 265 264 272 272 269 270 273 272 269 261 271 267 271 271 273 271 272 274 274 274 273 275 278 280 282 282 282 281 280 280 282
244 246 248 248 244 244 242 246 243 242 244 246 250 254 257 256 257 250 258 256 258 261 267 265 269 266 263 268 260 271 271 276 274 270 267 272 273 273 275 278 280 276 274 276 276 277 276 278 277
243 244 248 250 251 251 249 249 250 245 246 247 249 250 252 253 256 259 262 267 266 268 269 263 256 260 259 255 258 261 265 264 270 274 270 270 275 276 275 274 275 275 275 276 273 274 276 275 276
243 243 244 249 250 252 255 256 258 256 252 253 253 254 257 262 261 259 260 261 262 264 272 271 271 266 264 266 267 271 272 270 272 273 272 277 276 275 274 275 274 275 276 274 273 273 272 273 272
242 243 245 248 250 251 254 257 260 261 262 263 263 262 264 264 265 268 270 270 271 272 274 272 270 272 270 264 270 273 275 273 272 272 271 272 274 276 276 274 276 274 271 270 270 271 269 269 270
244 244 244 246 249 249 252 256 258 261 261 262 265 265 265 265 265 266 267 270 272 272 268 271 272 273 273 272 272 276 279 278 275 273 272 274 272 273 275 278 275 272 272 271 270 268 265 266 262
244 244 247 249 249 251 251 255 256 259 262 263 264 263 263 264 265 264 265 267 269 270 270 274 273 273 272 273 274 276 276 276 279 274 271 272 274 275 274 276 276 275 273 273 272 270 267 266 265
247 247 247 249 250 251 251 252 255 257 259 261 262 263 264 264 265 265 265 266 267 270 272 271 271 270 270 271 272 273 273 275 274 273 273 276 277 277 275 274 274 273 272 272 273 271 268 267 266
252 251 253 255 255 255 255 256 257 257 257 258 259 260 261 261 263 265 265 266 268 269 269 270 271 271 271 271 272 272 271 271 274 275 275 275 277 279 279 280 282 282 280 277 275 273 270 268 267
269 268 258 258 257 254 257 255 256 258 256 258 259 261 263 264 262 263 261 265 263 256 257 260 263 266 263 267 270 272 273 274 277 278 279 278 274 271 286 288 291 288 290 288 287 284 279 274 270
265 270 270 265 263 266 267 262 257 260 261 259 258 256 258 260 260 255 256 259 260 257 257 260 264 270 273 271 271 272 275 278 279 281 282 284 284 280 285 274 288 290 300 295 291 289 290 286 281
246 242 247 254 256 254 259 262 263 267 264 265 264 263 263 265 258 263 262 265 270 270 270 270 268 269 274 276 276 277 279 280 282 283 284 285 286 284 262 268 284 280 300 296 292 291 288 287 285
249 249 251 255 258 258 262 265 267 266 268 269 271 266 267 268 265 267 271 268 268 269 272 274 274 274 275 276 279 282 284 284 285 286 286 286 287 286 284 277 264 289 298 291 290 283 290 289 290
251 254 254 257 257 258 260 264 265 266 266 268 271 270 270 270 264 267 268 271 272 274 276 277 278 278 278 281 282 284 283 285 286 287 287 286 286 286 286 282 263 242 250 269 268 284 289 288 286
252 253 255 257 257 258 258 261 264 266 267 267 267 269 269 270 271 271 272 274 273 275 277 278 280 281 282 281 281 282 283 285 285 286 286 285 284 283 284 281 265 259 260 259 267 281 289 284 285
255 255 258 260 263 262 262 262 264 263 266 266 267 267 268 269 270 273 276 277 276 276 276 277 278 279 280 281 284 285 286 286 286 287 286 285 284 284 284 281 273 257 264 265 263 286 264 266 247
256 258 260 263 263 265 266 265 268 268 264 264 265 265 267 269 271 273 275 273 277 279 280 281 282 283 284 285 286 286 286 286 285 286 286 283 282 282 282 282 273 269 266 260 242 227 253 252 251
Height
10930 10933 10937 10942 10946 10948 10949 10951 10954 10957 10959 10962 10963 10966 10967 10972 10973 10976 10977 10980 10979 10980 10981 10982 10984 10986 10987 10989 10989 10990 10991 10991 10992 10992 10991 10991 10991 10990 10990 10991 10990 10989 10987 10985 10984 10983 10982 10981 10979
10922 10927 10932 10937 10940 10943 10941 10942 10948 10951 10958 10954 10958 10960 10964 10969 10969 10974 10973 10976 10975 10977 10978 10979 10981 10983 10984 10985 10986 10987 10988 10988 10988 10989 10989 10988 10988 10988 10987 10987 10986 10985 10984 10983 10982 10980 10979 10977 10976
10915 10921 10925 10931 10934 10936 10932 10942 10943 10949 10950 10950 10952 10954 10961 10962 10965 10966 10969 10971 10972 10974 10975 10976 10977 10978 10980 10981 10983 10984 10984 10984 10984 10985 10985 10985 10985 10985 10985 10984 10983 10982 10981 10980 10979 10977 10976 10974 10972
10906 10913 10918 10925 10927 10927 10927 10935 10940 10945 10944 10946 10948 10949 10956 10957 10958 10960 10963 10965 10965 10967 10969 10971 10972 10973 10974 10975 10976 10977 10978 10979 10980 10980 10980 10981 10982 10982 10982 10981 10980 10979 10978 10977 10975 10973 10972 10970 10968
10898 10906 10912 10917 10919 10920 10923 10927 10935 10939 10936 10941 10942 10946 10952 10951 10954 10954 10956 10957 10960 10961 10962 10964 10966 10967 10967 10969 10970 10971 10972 10973 10973 10974 10975 10975 10975 10976 10976 10976 10975 10975 10974 10973 10971 10969 10968 10966 10964
10891 10895 10904 10909 10910 10912 10914 10919 10928 10928 10931 10936 10934 10940 10947 10947 10950 10950 10950 10952 10953 10956 10956 10958 10959 10960 10961 10962 10964 10965 10966 10967 10967 10967 10967 10967 10968 10968 10968 10969 10969 10969 10969 10968 10967 10965 10963 10962 10960
10881 10886 10894 10897 10901 10903 10907 10913 10917 10920 10924 10927 10931 10932 10936 10944 10943 10944 10944 10945 10948 10950 10948 10951 10953 10954 10955 10956 10958 10958 10959 10959 10960 10960 10960 10960 10961 10961 10961 10961 10961 10961 10960 10960 10959 10958 10958 10957 10955
10871 10878 10886 10889 10892 10895 10896 10902 10909 10913 10914 10919 10928 10919 10930 10941 10942 10933 10933 10936 10940 10943 10944 10944 10945 10945 10947 10948 10948 10950 10950 10951 10951 10951 10950 10951 10952 10953 10954 10953 10952 10952 10952 10951 10950 10951 10950 10949 10948
10861 10872 10878 10878 10881 10883 10883 10892 10904 10900 10904 10912 10920 10907 10917 10928 10929 10925 10925 10929 10930 10935 10938 10937 10937 10937 10937 10937 10938 10939 10940 10941 10941 10943 10942 10942 10942 10942 10944 10944 10944 10942 10942 10942 10942 10942 10941 10941 10941
10854 10861 10864 10865 10866 10870 10878 10883 10888 10900 10891 10902 10902 10900 10901 10913 10917 10917 10917 10916 10921 10927 10928 10930 10929 10928 10928 10927 10926 10927 10928 10928 10929 10929 10930 10930 10931 10932 10932 10933 10934 10934 10934 10932 10931 10931 10931 10931 10931
10841 10852 10850 10852 10853 10868 10870 10869 10875 10883 10884 10888 10890 10892 10893 10898 10906 10904 10902 10905 10908 10915 10920 10924 10918 10918 10917 10916 10914 10913 10914 10916 10917 10918 10917 10919 10919 10918 10918 10917 10920 10923 10922 10923 10923 10921 10920 10919 10920
10830 10836 10837 10841 10846 10859 10852 10858 10865 10867 10871 10876 10877 10877 10883 10883 10887 10891 10890 10891 10897 10902 10909 10909 10912 10908 10904 10905 10903 10900 10899 10900 10902 10905 10905 10906 10907 10907 10907 10904 10907 10906 10907 10909 10911 10911 10909 10909 10910
10816 10817 10822 10829 10835 10845 10837 10847 10849 10855 10858 10864 10865 10866 10868 10869 10873 10874 10873 10876 10882 10881 10886 10897 10904 10898 10889 10889 10889 10880 10882 10883 10888 10891 10892 10893 10893 10895 10894 10893 10893 10891 10892 10892 10892 10895 10894 10897 10896
10794 10801 10809 10813 10818 10827 10827 10833 10839 10843 10843 10849 10853 10855 10857 10857 10855 10857 10857 10861 10866 10865 10865 10877 10889 10888 10840 10853 10867 10868 10868 10867 10872 10872 10874 10874 10874 10877 10876 10876 10879 10880 10878 10877 10878 10878 10880 10880 10881
10783 10787 10790 10799 10802 10806 10808 10818 10822 10820 10826 10839 10842 10836 10837 10844 10841 10838 10840 10849 10853 10855 10843 10860 10873 10867 10854 10848 10849 10850 10851 10850 10855 10852 10857 10854 10856 10854 10859 10854 10858 10862 10862 10862 10864 10862 10864 10863 10865
10768 10775 10778 10776 10780 10785 10794 10802 10797 10800 10815 10825 10818 10822 10821 10823 10823 10827 10824 10825 10833 10834 10828 10834 10846 10856 10848 10843 10833 10833 10832 10832 10832 10833 10835 10837 10830 10837 10837 10835 10833 10832 10840 10840 10843 10842 10847 10845 10846
10757 10760 10761 10761 10765 10772 10780 10785 10775 10787 10797 10797 10799 10802 10799 10801 10805 10806 10807 10811 10815 10824 10819 10817 10811 10812 10831 10813 10811 10810 10811 10813 10808 10809 10812 10814 10809 10809 10817 10814 10813 10813 10815 10818 10818 10820 10824 10823 10824
10736 10742 10749 10752 10748 10760 10765 10771 10763 10771 10779 10777 10777 10783 10784 10785 10788 10787 10787 10790 10800 10805 10801 10801 10797 10786 10792 10803 10785 10791 10791 10791 10788 10788 10785 10787 10788 10783 10784 10784 10790 10794 10794 10796 10798 10799 10804 10800 10802
10724 10728 10730 10733 10737 10750 10753 10750 10752 10749 10757 10762 10755 10763 10766 10765 10768 10770 10771 10771 10774 10791 10781 10777 10785 10783 10774 10775 10780 10771 10769 10768 10767 10765 10765 10763 10765 10763 10757 10757 10760 10770 10773 10768 10776 10781 10782 10783 10782
10709 10714 10716 10720 10724 10726 10737 10730 10735 10735 10736 10741 10739 10741 10742 10746 10748 10752 10754 10762 10765 10752 10754 10765 10765 10761 10756 10754 10753 10751 10749 10746 10743 10741 10737 10735 10733 10743 10735 10730 10736 10741 10748 10747 10750 10753 10758 10761 10757
10697 10701 10703 10706 10708 10714 10717 10716 10721 10721 10721 10720 10721 10721 10724 10727 10730 10731 10740 10741 10737 10742 10730 10739 10739 10740 10736 10733 10730 10729 10728 10726 10724 10720 10718 10715 10712 10719 10716 10710 10710 10718 10722 10726 10725 10728 10730 10734 10736
10688 10689 10691 10693 10695 10699 10700 10705 10705 10704 10704 10705 10706 10706 10709 10710 10715 10717 10713 10716 10724 10723 10717 10715 10719 10717 10711 10712 10712 10711 10710 10707 10703 10700 10699 10701 10700 10701 10703 10698 10696 10696 10700 10702 10706 10705 10707 10710 10713
10681 10681 10682 10683 10684 10686 10688 10692 10690 10687 10689 10688 10690 10691 10692 10696 10701 10699 10695 10701 10707 10704 10703 10705 10704 10701 10699 10699 10697 10695 10694 10692 10688 10683 10682 10682 10693 10710 10706 10696 10690 10688 10692 10693 10693 10691 10687 10687 10688
10670 10670 10671 10673 10674 10680 10677 10677 10682 10679 10678 10678 10681 10683 10681 10685 10689 10684 10685 10690 10686 10689 10692 10692 10693 10687 10684 10684 10684 10683 10680 10676 10674 10669 10666 10665 10667 10694 10690 10680 10679 10684 10687 10681 10675 10675 10676 10673 10671
10655 10655 10657 10660 10662 10669 10665 10667 10671 10667 10665 10668 10668 10668 10669 10673 10674 10671 10673 10674 10671 10675 10675 10676 10675 10675 10671 10667 10665 10664 10663 10660 10656 10653 10650 10648 10647 10663 10694 10688 10696 10677 10670 10659 10654 10659 10654 10656 10660
10645 10644 10645 10647 10650 10656 10654 10658 10659 10652 10653 10654 10651 10655 10658 10659 10655 10659 10657 10658 10660 10660 10660 10659 10657 10658 10657 10652 10647 10645 10642 10637 10635 10633 10629 10627 10627 10631 10650 10681 10675 10664 10632 10642 10632 10635 10641 10638 10645
10631 10632 10628 10636 10640 10642 10642 10643 10643 10638 10636 10642 10641 10640 10641 10638 10642 10646 10643 10645 10643 10642 10643 10642 10638 10638 10635 10633 10629 10627 10621 10616 10614 10610 10606 10604 10602 10602 10611 10641 10650 10648 10626 10634 10618 10626 10629 10628 10631
10617 10613 10615 10617 10625 10627 10632 10630 10629 10622 10623 10624 10626 10623 10626 10625 10623 10627 10630 10626 10626 10626 10625 10625 10623 10617 10612 10608 10608 10607 10598 10598 10593 10589 10586 10578 10574 10574 10577 10598 10619 10619 10609 10614 10615 10621 10617 10621 10625
10599 10601 10601 10600 10606 10611 10614 10618 10608 10616 10607 10607 10607 10606 10610 10610 10612 10612 10611 10601 10608 10608 10606 10605 10605 10599 10592 10587 10583 10578 10572 10569 10564 10564 10560 10552 10544 10543 10547 10562 10579 10585 10581 10590 10599 10594 10605 10615 10618
10581 10583 10583 10581 10591 10589 10594 10609 10591 10587 10591 10590 10588 10587 10591 10593 10595 10595 10596 10589 10591 10586 10585 10578 10579 10573 10568 10562 10557 10550 10543 10541 10534 10531 10526 10520 10519 10515 10515 10526 10543 10551 10560 10566 10576 10575 10579 10588 10589